FENGYUN 1C DEB, 30058

Orbit data source: Space-Track

FENGYUN 1C DEB, 30058 is space debris in SSO originally from a launch on Mon, 10 May 1999 UTC launched from the Taiyaun Space Center, China (TSC). Fengyun 1C debris stems from the Chinese weather satellite Fengyun-1C, which was intentionally destroyed by a Chinese anti-satellite missile in 2007. This event dramatically increased the amount of space debris, with thousands of trackable fragments posing hazards to satellites and human spaceflight. The Fengyun 1C debris cloud has become a focal point in discussions about space sustainability and the need for international regulations to prevent the creation of new debris.

Loading next visibility...
Identifier
30058, 1999-025PK
Orbit
SSO
Country
Flag of CNCN / PRC
Related business
Manufacturer
Unknown
Mission
Spacecraft
Bus & Motor
Unknown
Mass
Unknown
Launch date (UTC)
1999-05-10 (27 years ago)
Launch vehicle
Unknown
Launch site
Taiyaun Space Center, China (TSC)
Object type
Payload
Rocket body
Debris
Shape & HBR
Unknown shape, 0.1 m
Radar Cross Section
Small (<0.1 m²)

Expand to show TLE details & history
Last TLE update: 21 hours ago

TLE from 21 hours ago
0 FENGYUN 1C DEB
1 30058U 99025PK  26106.50813627  .00000318  00000-0  42927-3 0  9997
2 30058  99.6516 111.7250 0314714 202.2465 312.1190 13.48431261945291
Epoch: 2026-04-16T12:11Z
TLE epoch observation values (Epoch: 2026-04-16T12:11:42.973Z)
Latitude
27.98721°
Longitude
-90.70081°
Altitude
928.157 km
Speed
7.466 km/s
True Right ascension
19h 47m 31s
True Declination
27° 50' 54"
Sunlit
Object was in daylight at epoch
Visualization orbit readout
Latitude
Unknown
Longitude
Unknown
Altitude
Unknown
Speed
Unknown
Apparent Right ascension
Unknown
Apparent Declination
Unknown
Sunlit
N/A
Visualization observer readout
Local Sidereal Time
15:45:31
Azimuth
Unknown
Elevation
Unknown
Doppler factor
Unknown
Orbital elements
Apogee altitude
1,309.904 km
Perigee altitude
840.762 km
Semi-major axis
7,453.47 km
Eccentricity
0.03147
Inclination
99.6516°
RAAN
111.725°
Arg. of periapsis
202.2465°
True anomaly
309.37262°
Mean anomaly
312.119°
Eccentric anomaly
310.75304°
Mean motion
3.37292 °/min
Orbital period
106.73 mins
BSTAR
0.00042927
Loading maneuver chart data...
Computing Atmospheric mass density...

Documentation

Showing up to 5 results
|